START_TIME,STEP,MOV.,M6,t_acc.,M7,t_acc.,M19,t_acc.,H36,t_acc.
1979-08-05 21:00:25.710 ,0,0,0.,12.0,0.,12.0,0.,12.0,0.,12.0
1979-08-05 21:00:37.710 ,0,0,0.,12.0,0.,12.0,0.,12.0,0.,12.0
1979-08-05 21:00:49.710 ,0,1,0.,12.0,0.,12.0,0.,12.0,0.,12.0
1979-08-05 21:01:01.710 ,0,1,0.,12.0,0.,12.0,0.,12.0,0.,12.0
1979-08-05 21:01:13.710 ,0,0,0.,12.0,0.,12.0,0.,12.0,0.,12.0
1979-08-05 21:01:25.710 ,0,0,0.,12.0,0.,12.0,0.,12.0,0.,12.0
1979-08-05 21:01:37.710 ,1,1,0.,12.0,0.,12.0,0.,12.0,0.,12.0
1979-08-05 21:01:49.710 ,1,1,0.,12.0,0.,12.0,0.,12.0,0.,12.0
1979-08-05 21:02:01.710 ,1,0,0.,12.0,0.,12.0,0.,12.0,0.,12.0
1979-08-05 21:02:13.710 ,1,0,0.,12.0,0.,12.0,0.,12.0,0.,12.0
1979-08-05 21:02:25.710 ,2,1,0.,12.0,0.,12.0,0.,12.0,0.,12.0
1979-08-05 21:02:37.710 ,2,1,0.,12.0,0.,12.0,0.,12.0,0.,12.0
1979-08-05 21:02:49.710 ,2,0,0.,12.0,0.,12.0,0.,12.0,0.,12.0
1979-08-05 21:03:01.710 ,2,0,0.,12.0,0.,12.0,0.,12.0,0.,12.0
1979-08-05 21:03:13.710 ,3,1,0.,12.0,0.,12.0,0.,12.0,0.,12.0
1979-08-05 21:03:25.710 ,3,1,0.,12.0,0.,12.0,0.,12.0,0.,12.0
1979-08-05 21:03:37.710 ,3,0,0.,12.0,0.,12.0,0.,12.0,0.,12.0
1979-08-05 21:03:49.710 ,3,0,0.,12.0,0.,12.0,0.,12.0,0.,12.0
1979-08-05 21:04:01.710 ,4,1,0.,12.0,0.,12.0,0.,12.0,0.,12.0
1979-08-05 21:04:13.710 ,4,1,0.,12.0,0.,12.0,0.,12.0,0.,12.0
1979-08-05 21:04:25.710 ,4,0,0.,12.0,0.,12.0,0.,12.0,0.,12.0
1979-08-05 21:04:37.710 ,4,0,0.,12.0,0.,12.0,0.,12.0,0.,12.0
1979-08-05 21:04:49.710 ,5,1,0.,12.0,0.,12.0,0.,12.0,0.,12.0
1979-08-05 21:05:01.710 ,5,1,0.,12.0,0.,12.0,0.,12.0,0.,12.0
1979-08-05 21:05:13.710 ,5,0,0.,12.0,0.,12.0,0.,12.0,0.,12.0
1979-08-05 21:05:25.710 ,5,0,0.,12.0,0.,12.0,0.,12.0,0.,12.0
1979-08-05 21:05:37.710 ,6,1,0.,12.0,0.,12.0,0.,12.0,0.,12.0
1979-08-05 21:05:49.710 ,6,1,0.,12.0,0.,12.0,0.,12.0,0.,12.0
1979-08-05 21:06:01.710 ,6,0,0.,12.0,0.,12.0,0.,12.0,0.,12.0
1979-08-05 21:06:13.710 ,6,0,0.,12.0,0.,12.0,0.,12.0,0.,12.0
1979-08-05 21:06:25.710 ,7,0,0.,12.0,0.,12.0,0.,12.0,0.,12.0
1979-08-05 21:06:37.710 ,7,0,0.,12.0,0.,12.0,0.,12.0,0.,12.0
1979-08-05 21:06:49.710 ,7,0,0.,12.0,0.,12.0,0.,12.0,0.,12.0
1979-08-05 21:07:01.710 ,7,0,0.,12.0,0.,12.0,0.,12.0,0.,12.0
1979-08-05 21:07:13.710 ,4,1,0.,12.0,0.,12.0,0.,12.0,0.,12.0
1979-08-05 21:07:25.710 ,4,1,0.,12.0,0.,12.0,0.,12.0,0.,12.0
1979-08-05 21:07:37.710 ,0,1,,0,,0,,0,,0
1979-08-05 21:07:49.710 ,0,1,0.,12.0,0.,12.0,0.,12.0,0.,12.0
1979-08-05 21:08:01.710 ,3,1,0.,12.0,0.,12.0,0.,12.0,0.,12.0
1979-08-05 21:08:13.710 ,3,1,0.,12.0,0.,12.0,0.,12.0,0.,12.0
1979-08-05 21:08:25.710 ,7,1,0.,12.0,0.,12.0,0.,12.0,0.,12.0
1979-08-05 21:08:37.710 ,7,1,0.,12.0,0.,12.0,0.,12.0,0.,12.0
1979-08-05 21:08:49.710 ,4,1,0.,12.0,0.,12.0,0.,12.0,0.,12.0
1979-08-05 21:09:01.710 ,4,1,0.,12.0,0.,12.0,0.,12.0,0.,12.0
1979-08-05 21:09:13.710 ,0,1,0.,12.0,0.,12.0,0.,12.0,0.,12.0
1979-08-05 21:09:25.710 ,0,1,0.,12.0,0.,12.0,0.,12.0,0.,12.0
1979-08-05 21:09:37.710 ,3,1,0.,12.0,0.,12.0,0.,12.0,0.,12.0
1979-08-05 21:09:49.710 ,3,1,0.,12.0,0.,12.0,0.,12.0,0.,12.0
1979-08-05 21:10:01.710 ,7,1,0.,12.0,0.,12.0,0.,12.0,0.,12.0
1979-08-05 21:10:13.710 ,7,1,0.,12.0,0.,12.0,0.,12.0,0.,12.0
1979-08-05 21:10:25.710 ,4,1,0.,12.0,0.,12.0,0.,12.0,0.,12.0
1979-08-05 21:10:37.710 ,4,1,0.,12.0,0.,12.0,0.,12.0,0.,12.0
1979-08-05 21:10:49.710 ,0,1,0.,12.0,0.,12.0,0.,12.0,0.,12.0
1979-08-05 21:11:01.710 ,0,1,0.,12.0,0.,12.0,0.,12.0,0.,12.0
1979-08-05 21:11:13.710 ,3,1,0.,12.0,0.,12.0,0.,12.0,0.,12.0
1979-08-05 21:11:25.710 ,3,1,0.,12.0,0.,12.0,0.,12.0,0.,12.0
1979-08-05 21:11:37.710 ,7,1,0.,12.0,0.,12.0,0.,12.0,0.,12.0
1979-08-05 21:11:49.710 ,7,1,0.,12.0,0.,12.0,0.,12.0,0.,12.0
1979-08-05 21:12:01.710 ,4,1,0.,12.0,0.,12.0,0.,12.0,0.,12.0
1979-08-05 21:12:13.710 ,4,1,0.,12.0,0.,12.0,0.,12.0,0.,12.0
1979-08-05 21:12:25.710 ,0,1,0.,12.0,0.,12.0,0.,12.0,0.,12.0
1979-08-05 21:12:37.710 ,0,1,0.,12.0,0.,12.0,0.,12.0,0.,12.0
1979-08-05 21:12:50.310 ,3,1,0.,12.0,0.,12.0,0.,12.0,0.,12.0
1979-08-05 21:13:02.310 ,3,1,0.,12.0,0.,12.0,0.,12.0,0.,12.0
1979-08-05 21:13:13.710 ,7,1,0.,12.0,0.,12.0,0.,12.0,0.,12.0
1979-08-05 21:13:25.710 ,7,1,0.,12.0,0.,12.0,0.,12.0,0.,12.0
1979-08-05 21:13:37.710 ,4,1,0.,12.0,0.,12.0,0.,12.0,0.,12.0
1979-08-05 21:13:49.710 ,4,1,0.,12.0,0.,12.0,0.,12.0,0.,12.0
1979-08-05 21:14:01.710 ,0,1,0.,12.0,0.,12.0,0.,12.0,0.,12.0
1979-08-05 21:14:13.710 ,0,1,0.,12.0,0.,12.0,0.,12.0,0.,12.0
1979-08-05 21:14:25.710 ,3,1,0.,12.0,0.,12.0,0.,12.0,0.,12.0
1979-08-05 21:14:37.710 ,3,1,0.,12.0,0.,12.0,0.,12.0,0.,12.0
1979-08-05 21:14:49.710 ,7,1,0.,12.0,0.,12.0,0.,12.0,0.,12.0
1979-08-05 21:15:01.710 ,7,1,0.,12.0,0.,12.0,0.,12.0,0.,12.0
1979-08-05 21:15:13.710 ,4,1,0.,12.0,0.,12.0,0.,12.0,0.,12.0
1979-08-05 21:15:25.710 ,4,1,0.,12.0,0.,12.0,0.,12.0,0.,12.0
1979-08-05 21:15:37.710 ,0,1,0.,12.0,0.,12.0,0.,12.0,0.,12.0
1979-08-05 21:15:49.710 ,0,1,0.,12.0,0.,12.0,0.,12.0,0.,12.0
1979-08-05 21:16:01.710 ,3,1,0.,12.0,0.,12.0,0.,12.0,0.,12.0
1979-08-05 21:16:13.710 ,3,1,0.,12.0,0.,12.0,0.,12.0,0.,12.0
1979-08-05 21:16:25.710 ,7,1,0.,12.0,0.,12.0,0.,12.0,0.,12.0
1979-08-05 21:16:37.710 ,7,1,0.,12.0,0.,12.0,0.,12.0,0.,12.0
1979-08-05 21:16:49.710 ,6,1,0.,12.0,0.,12.0,0.,12.0,0.,12.0
1979-08-05 21:17:01.710 ,6,1,,0,,0,,0,,0
1979-08-05 21:17:13.710 ,0,1,0.,12.0,0.,12.0,0.,12.0,0.,12.0
1979-08-05 21:17:25.710 ,0,1,0.,12.0,0.,12.0,0.,12.0,0.,12.0
1979-08-05 21:17:37.710 ,0,0,0.,12.0,0.,12.0,0.,12.0,0.,12.0
1979-08-05 21:17:49.710 ,0,0,0.,12.0,0.,12.0,0.,12.0,0.,12.0
1979-08-05 21:18:01.710 ,0,0,0.,12.0,0.,12.0,0.,12.0,0.,12.0
1979-08-05 21:18:13.710 ,0,0,0.,12.0,0.,12.0,0.,12.0,0.,12.0
1979-08-05 21:18:25.710 ,5,1,0.,12.0,0.,12.0,0.,12.0,0.,12.0
1979-08-05 21:18:37.710 ,5,1,0.,12.0,0.,12.0,0.,12.0,0.,12.0
1979-08-05 21:18:49.710 ,5,0,0.,12.0,0.,12.0,0.,12.0,0.,12.0
1979-08-05 21:19:01.710 ,5,0,0.,12.0,0.,12.0,0.,12.0,0.,12.0
1979-08-05 21:19:13.710 ,4,1,0.,12.0,0.,12.0,0.,12.0,0.,12.0
1979-08-05 21:19:25.710 ,4,1,0.,12.0,0.,12.0,0.,12.0,0.,12.0
1979-08-05 21:19:37.710 ,4,0,0.,12.0,0.,12.0,0.,12.0,0.,12.0
1979-08-05 21:19:49.710 ,4,0,0.,12.0,0.,12.0,0.,12.0,0.,12.0
1979-08-05 21:20:01.710 ,3,1,0.,12.0,0.,12.0,0.,12.0,0.,12.0
1979-08-05 21:20:13.710 ,3,1,0.,12.0,0.,12.0,0.,12.0,0.,12.0
1979-08-05 21:20:25.710 ,3,0,0.,12.0,0.,12.0,0.,12.0,0.,12.0
1979-08-05 21:20:37.710 ,3,0,0.,12.0,0.,12.0,0.,12.0,0.,12.0
1979-08-05 21:20:49.710 ,2,1,0.,12.0,0.,12.0,0.,12.0,0.,12.0
1979-08-05 21:21:01.710 ,2,1,0.,12.0,0.,12.0,0.,12.0,0.,12.0
1979-08-05 21:21:13.710 ,2,0,0.,12.0,0.,12.0,0.,12.0,0.,12.0
1979-08-05 21:21:25.710 ,2,0,0.,12.0,0.,12.0,0.,12.0,0.,12.0
1979-08-05 21:21:37.710 ,2,0,0.,12.0,0.,12.0,0.,12.0,0.,12.0
1979-08-05 21:21:49.710 ,2,0,,0,,0,,0,,0
1979-08-05 21:22:01.710 ,1,0,0.,12.0,0.,12.0,0.,12.0,0.,12.0
1979-08-05 21:22:13.710 ,1,0,0.,12.0,0.,12.0,0.,12.0,0.,12.0
1979-08-05 21:22:25.710 ,0,1,0.,12.0,0.,12.0,0.,12.0,0.,12.0
1979-08-05 21:22:37.710 ,0,1,0.,12.0,0.,12.0,0.,12.0,0.,12.0
1979-08-05 21:22:49.710 ,0,0,0.,12.0,0.,12.0,0.,12.0,0.,12.0
1979-08-05 21:23:01.710 ,0,0,0.,12.0,0.,12.0,0.,12.0,0.,12.0
1979-08-05 21:23:13.710 ,0,1,0.,12.0,0.,12.0,0.,12.0,0.,12.0
1979-08-05 21:23:25.710 ,0,1,0.,12.0,0.,12.0,0.,12.0,0.,12.0
1979-08-05 21:23:37.710 ,0,0,0.,12.0,0.,12.0,0.,12.0,0.,12.0
1979-08-05 21:23:49.710 ,0,0,0.,12.0,0.,12.0,0.,12.0,0.,12.0
1979-08-05 21:24:01.710 ,1,1,0.,12.0,0.,12.0,0.,12.0,0.,12.0
1979-08-05 21:24:13.710 ,1,1,0.,12.0,0.,12.0,0.,12.0,0.,12.0
1979-08-05 21:24:25.710 ,1,0,0.,12.0,0.,12.0,0.,12.0,0.,12.0
1979-08-05 21:24:37.710 ,1,0,0.,12.0,0.,12.0,0.,12.0,0.,12.0
1979-08-05 21:24:49.710 ,2,1,0.,12.0,0.,12.0,0.,12.0,0.,12.0
1979-08-05 21:25:01.710 ,2,1,0.,12.0,0.,12.0,0.,12.0,0.,12.0
1979-08-05 21:25:13.710 ,2,0,0.,12.0,0.,12.0,0.,12.0,0.,12.0
1979-08-05 21:25:25.710 ,2,0,0.,12.0,0.,12.0,0.,12.0,0.,12.0
1979-08-05 21:25:37.710 ,3,1,0.,12.0,0.,12.0,0.,12.0,0.,12.0
1979-08-05 21:25:49.710 ,3,1,0.,12.0,0.,12.0,0.,12.0,0.,12.0
1979-08-05 21:26:01.710 ,3,0,0.,12.0,0.,12.0,0.,12.0,0.,12.0
1979-08-05 21:26:13.710 ,3,0,0.,12.0,0.,12.0,0.,12.0,0.,12.0
1979-08-05 21:26:25.710 ,4,1,0.,12.0,0.,12.0,0.,12.0,0.,12.0
1979-08-05 21:26:37.710 ,4,1,0.,12.0,0.,12.0,0.,12.0,0.,12.0
1979-08-05 21:26:49.710 ,4,0,0.,12.0,0.,12.0,0.,12.0,0.,12.0
1979-08-05 21:27:01.710 ,4,0,0.,12.0,0.,12.0,0.,12.0,0.,12.0
1979-08-05 21:27:13.710 ,5,1,0.,12.0,0.,12.0,0.,12.0,0.,12.0
1979-08-05 21:27:25.710 ,5,1,0.,12.0,0.,12.0,0.,12.0,0.,12.0
1979-08-05 21:27:37.710 ,5,0,0.,12.0,0.,12.0,0.,12.0,0.,12.0
1979-08-05 21:27:49.710 ,5,0,0.,12.0,0.,12.0,0.,12.0,0.,12.0
1979-08-05 21:28:01.710 ,6,1,0.,12.0,0.,12.0,0.,12.0,0.,12.0
1979-08-05 21:28:13.710 ,6,1,0.,12.0,0.,12.0,0.,12.0,0.,12.0
1979-08-05 21:28:25.710 ,0,0,0.,12.0,0.,12.0,0.,12.0,0.,12.0
1979-08-05 21:28:37.710 ,0,0,0.,12.0,0.,12.0,0.,12.0,0.,12.0
1979-08-05 21:28:49.710 ,7,1,0.,12.0,0.,12.0,0.,12.0,0.,12.0
1979-08-05 21:29:01.710 ,7,1,0.,12.0,0.,12.0,0.,12.0,0.,12.0
1979-08-05 21:29:13.710 ,7,0,0.,12.0,0.,12.0,0.,12.0,0.,12.0
1979-08-05 21:29:25.710 ,7,0,0.,12.0,0.,12.0,0.,12.0,0.,12.0
1979-08-05 21:29:37.710 ,7,1,0.,12.0,0.,12.0,0.,12.0,0.,12.0
1979-08-05 21:29:49.710 ,7,1,0.,12.0,0.,12.0,0.,12.0,0.,12.0
1979-08-05 21:30:01.710 ,7,0,0.,12.0,0.,12.0,0.,12.0,0.,12.0
1979-08-05 21:30:13.710 ,7,0,0.,12.0,0.,12.0,0.,12.0,0.,12.0
1979-08-05 21:30:25.710 ,6,1,0.,12.0,0.,12.0,0.,12.0,0.,12.0
1979-08-05 21:30:37.710 ,6,1,0.,12.0,0.,12.0,0.,12.0,0.,12.0
1979-08-05 21:30:49.710 ,6,0,0.,12.0,0.,12.0,0.,12.0,0.,12.0
1979-08-05 21:31:01.710 ,6,0,0.,12.0,0.,12.0,0.,12.0,0.,12.0
1979-08-05 21:31:13.710 ,5,1,0.,12.0,0.,12.0,0.,12.0,0.,12.0
1979-08-05 21:31:25.710 ,5,1,0.,12.0,0.,12.0,0.,12.0,0.,12.0
1979-08-05 21:31:37.710 ,5,0,0.,12.0,0.,12.0,0.,12.0,0.,12.0
1979-08-05 21:31:49.710 ,5,0,0.,12.0,0.,12.0,0.,12.0,0.,12.0
1979-08-05 21:32:01.710 ,4,1,0.,12.0,0.,12.0,0.,12.0,0.,12.0
1979-08-05 21:32:13.710 ,4,1,0.,12.0,0.,12.0,0.,12.0,0.,12.0
1979-08-05 21:32:25.710 ,4,0,0.,12.0,0.,12.0,0.,12.0,0.,12.0
1979-08-05 21:32:37.710 ,4,0,0.,12.0,0.,12.0,0.,12.0,0.,12.0
1979-08-05 21:32:49.710 ,3,1,0.,12.0,0.,12.0,0.,12.0,0.,12.0
1979-08-05 21:33:01.710 ,3,1,0.,12.0,0.,12.0,0.,12.0,0.,12.0
1979-08-05 21:33:13.710 ,3,0,0.,12.0,0.,12.0,0.,12.0,0.,12.0
1979-08-05 21:33:25.710 ,3,0,0.,12.0,0.,12.0,0.,12.0,0.,12.0
1979-08-05 21:33:37.710 ,2,1,0.,12.0,0.,12.0,0.,12.0,0.,12.0
1979-08-05 21:33:49.710 ,2,1,0.,12.0,0.,12.0,0.,12.0,0.,12.0
1979-08-05 21:34:01.710 ,2,0,0.,12.0,0.,12.0,0.,12.0,0.,12.0
1979-08-05 21:34:13.710 ,2,0,0.,12.0,0.,12.0,0.,12.0,0.,12.0
1979-08-05 21:34:25.710 ,1,1,0.,12.0,0.,12.0,0.,12.0,0.,12.0
1979-08-05 21:34:37.710 ,1,1,0.,12.0,0.,12.0,0.,12.0,0.,12.0
1979-08-05 21:34:49.710 ,1,0,0.,12.0,0.,12.0,0.,12.0,0.,12.0
1979-08-05 21:35:01.710 ,1,0,0.,12.0,0.,12.0,0.,12.0,0.,12.0
1979-08-05 21:35:13.710 ,0,0,0.,12.0,0.,12.0,0.,12.0,0.,12.0
1979-08-05 21:35:25.710 ,0,0,0.,12.0,0.,12.0,0.,12.0,0.,12.0
1979-08-05 21:35:37.710 ,0,0,0.,12.0,0.,12.0,0.,12.0,0.,12.0
1979-08-05 21:35:49.710 ,0,0,0.,12.0,0.,12.0,0.,12.0,0.,12.0
1979-08-05 21:36:01.710 ,0,1,0.,12.0,0.,12.0,0.,12.0,0.,12.0
1979-08-05 21:36:13.710 ,0,1,0.,12.0,0.,12.0,0.,12.0,0.,12.0
1979-08-05 21:36:25.710 ,0,0,0.,12.0,0.,12.0,0.,12.0,0.,12.0
1979-08-05 21:36:37.710 ,0,0,0.,12.0,0.,12.0,0.,12.0,0.,12.0
1979-08-05 21:36:49.710 ,1,1,0.,12.0,0.,12.0,0.,12.0,0.,12.0
1979-08-05 21:37:01.710 ,1,1,0.,12.0,0.,12.0,0.,12.0,0.,12.0
1979-08-05 21:37:13.710 ,0,0,0.,12.0,0.,12.0,0.,12.0,0.,12.0
1979-08-05 21:37:25.710 ,0,0,0.,12.0,0.,12.0,0.,12.0,0.,12.0
1979-08-05 21:37:37.710 ,2,1,0.,12.0,0.,12.0,0.,12.0,0.,12.0
1979-08-05 21:37:49.710 ,2,1,1.,12.0,0.,12.0,0.,12.0,0.,12.0
1979-08-05 21:38:01.710 ,2,0,0.,12.0,0.,12.0,0.,12.0,0.,12.0
1979-08-05 21:38:13.710 ,2,0,0.,12.0,0.,12.0,0.,12.0,0.,12.0
1979-08-05 21:38:25.710 ,3,1,0.,12.0,0.,12.0,0.,12.0,0.,12.0
1979-08-05 21:38:37.710 ,3,1,0.,12.0,0.,12.0,0.,12.0,0.,12.0
1979-08-05 21:38:49.710 ,3,0,0.,12.0,0.,12.0,0.,12.0,0.,12.0
1979-08-05 21:39:01.710 ,3,0,0.,12.0,0.,12.0,0.,12.0,0.,12.0
1979-08-05 21:39:13.710 ,4,1,0.,12.0,0.,12.0,0.,12.0,0.,12.0
1979-08-05 21:39:25.710 ,4,1,0.,12.0,0.,12.0,0.,12.0,0.,12.0
1979-08-05 21:39:37.710 ,4,0,0.,12.0,0.,12.0,0.,12.0,0.,12.0
1979-08-05 21:39:49.710 ,4,0,0.,12.0,0.,12.0,0.,12.0,0.,12.0
1979-08-05 21:40:01.710 ,5,1,0.,12.0,0.,12.0,0.,12.0,0.,12.0
1979-08-05 21:40:13.710 ,5,1,0.,12.0,0.,12.0,0.,12.0,0.,12.0
1979-08-05 21:40:25.710 ,5,0,0.,12.0,0.,12.0,0.,12.0,0.,12.0
1979-08-05 21:40:37.710 ,5,0,0.,12.0,0.,12.0,0.,12.0,0.,12.0
1979-08-05 21:40:49.710 ,6,1,0.,12.0,0.,12.0,0.,12.0,0.,12.0
1979-08-05 21:41:01.710 ,6,1,0.,12.0,0.,12.0,0.,12.0,0.,12.0
1979-08-05 21:41:13.710 ,6,0,0.,12.0,0.,12.0,0.,12.0,0.,12.0
1979-08-05 21:41:25.710 ,6,0,0.,12.0,0.,12.0,0.,12.0,0.,12.0
1979-08-05 21:41:37.710 ,6,0,0.,12.0,0.,12.0,0.,12.0,0.,12.0
1979-08-05 21:41:49.710 ,6,0,,0,,0,,0,,0
1979-08-05 21:42:01.710 ,0,0,0.,12.0,0.,12.0,0.,12.0,0.,12.0
1979-08-05 21:42:13.710 ,0,0,0.,12.0,0.,12.0,0.,12.0,0.,12.0
1979-08-05 21:42:25.710 ,7,1,0.,12.0,0.,12.0,0.,12.0,0.,12.0
1979-08-05 21:42:37.710 ,7,1,0.,12.0,0.,12.0,0.,12.0,0.,12.0
1979-08-05 21:42:49.710 ,7,0,0.,12.0,0.,12.0,0.,12.0,0.,12.0
1979-08-05 21:43:01.710 ,7,0,0.,12.0,0.,12.0,0.,12.0,0.,12.0
1979-08-05 21:43:13.710 ,6,1,0.,12.0,0.,12.0,0.,12.0,0.,12.0
1979-08-05 21:43:25.710 ,6,1,0.,12.0,0.,12.0,0.,12.0,0.,12.0
1979-08-05 21:43:37.710 ,6,0,0.,12.0,0.,12.0,0.,12.0,0.,12.0
1979-08-05 21:43:49.710 ,6,0,0.,12.0,0.,12.0,0.,12.0,0.,12.0
1979-08-05 21:44:01.710 ,5,1,0.,12.0,0.,12.0,0.,12.0,0.,12.0
1979-08-05 21:44:13.710 ,5,1,0.,12.0,0.,12.0,0.,12.0,0.,12.0
1979-08-05 21:44:25.710 ,5,0,0.,12.0,0.,12.0,0.,12.0,0.,12.0
1979-08-05 21:44:37.710 ,5,0,0.,12.0,0.,12.0,0.,12.0,0.,12.0
1979-08-05 21:44:49.710 ,4,1,0.,12.0,0.,12.0,0.,12.0,0.,12.0
1979-08-05 21:45:01.710 ,4,1,0.,12.0,0.,12.0,0.,12.0,0.,12.0
1979-08-05 21:45:13.710 ,4,0,0.,12.0,0.,12.0,0.,12.0,0.,12.0
1979-08-05 21:45:25.710 ,4,0,0.,12.0,0.,12.0,0.,12.0,0.,12.0
1979-08-05 21:45:37.710 ,3,1,0.,12.0,0.,12.0,0.,12.0,0.,12.0
1979-08-05 21:45:49.710 ,3,1,0.,12.0,0.,12.0,0.,12.0,0.,12.0
1979-08-05 21:46:01.710 ,3,0,0.,12.0,0.,12.0,0.,12.0,0.,12.0
1979-08-05 21:46:13.710 ,3,0,0.,12.0,0.,12.0,0.,12.0,0.,12.0
1979-08-05 21:46:25.710 ,2,1,0.,12.0,0.,12.0,0.,12.0,0.,12.0
1979-08-05 21:46:37.710 ,2,1,0.,12.0,0.,12.0,0.,12.0,0.,12.0
1979-08-05 21:46:49.710 ,2,0,0.,12.0,0.,12.0,0.,12.0,0.,12.0
1979-08-05 21:47:01.710 ,2,0,0.,12.0,0.,12.0,0.,12.0,0.,12.0
1979-08-05 21:47:13.710 ,1,1,0.,12.0,0.,12.0,0.,12.0,0.,12.0
1979-08-05 21:47:25.710 ,1,1,0.,12.0,0.,12.0,0.,12.0,0.,12.0
1979-08-05 21:47:37.710 ,1,0,0.,12.0,0.,12.0,0.,12.0,0.,12.0
1979-08-05 21:47:49.710 ,1,0,0.,12.0,0.,12.0,0.,12.0,0.,12.0
1979-08-05 21:48:01.710 ,0,1,0.,12.0,0.,12.0,0.,12.0,0.,12.0
1979-08-05 21:48:13.710 ,0,1,0.,12.0,0.,12.0,0.,12.0,0.,12.0
1979-08-05 21:48:25.710 ,0,1,0.,12.0,0.,12.0,0.,12.0,0.,12.0
1979-08-05 21:48:37.710 ,0,1,0.,12.0,0.,12.0,0.,12.0,0.,12.0
1979-08-05 21:48:49.710 ,0,1,0.,12.0,0.,12.0,0.,12.0,0.,12.0
1979-08-05 21:49:01.710 ,0,1,0.,12.0,0.,12.0,0.,12.0,0.,12.0
1979-08-05 21:49:13.710 ,0,0,0.,12.0,0.,12.0,0.,12.0,0.,12.0
1979-08-05 21:49:25.710 ,0,0,0.,12.0,0.,12.0,0.,12.0,0.,12.0
1979-08-05 21:49:37.710 ,1,1,0.,12.0,0.,12.0,0.,12.0,0.,12.0
1979-08-05 21:49:49.710 ,1,1,0.,12.0,0.,12.0,0.,12.0,0.,12.0
1979-08-05 21:50:01.710 ,1,0,0.,12.0,0.,12.0,0.,12.0,0.,12.0
1979-08-05 21:50:13.710 ,1,0,0.,12.0,0.,12.0,0.,12.0,0.,12.0
1979-08-05 21:50:25.710 ,2,1,0.,12.0,0.,12.0,0.,12.0,0.,12.0
1979-08-05 21:50:37.710 ,2,1,0.,12.0,0.,12.0,0.,12.0,0.,12.0
1979-08-05 21:50:49.710 ,2,0,0.,12.0,0.,12.0,0.,12.0,0.,12.0
1979-08-05 21:51:01.710 ,2,0,0.,12.0,0.,12.0,0.,12.0,0.,12.0
1979-08-05 21:51:13.710 ,3,1,,0,,0,,0,,0
1979-08-05 21:51:25.710 ,3,1,0.,12.0,0.,12.0,0.,12.0,0.,12.0
1979-08-05 21:51:37.710 ,3,0,0.,12.0,0.,12.0,0.,12.0,0.,12.0
1979-08-05 21:51:49.710 ,3,0,0.,12.0,0.,12.0,0.,12.0,0.,12.0
1979-08-05 21:52:01.710 ,4,1,0.,12.0,0.,12.0,0.,12.0,0.,12.0
1979-08-05 21:52:13.710 ,4,1,0.,12.0,0.,12.0,0.,12.0,0.,12.0
1979-08-05 21:52:25.710 ,4,0,0.,12.0,0.,12.0,0.,12.0,0.,12.0
1979-08-05 21:52:37.710 ,4,0,0.,12.0,0.,12.0,0.,12.0,0.,12.0
1979-08-05 21:52:49.710 ,5,1,0.,12.0,0.,12.0,0.,12.0,0.,12.0
1979-08-05 21:53:01.710 ,5,1,0.,12.0,0.,12.0,0.,12.0,0.,12.0
1979-08-05 21:53:13.710 ,5,0,0.,12.0,0.,12.0,0.,12.0,0.,12.0
1979-08-05 21:53:25.710 ,5,0,0.,12.0,0.,12.0,0.,12.0,0.,12.0
1979-08-05 21:53:37.710 ,6,1,0.,12.0,0.,12.0,0.,12.0,0.,12.0
1979-08-05 21:53:49.710 ,6,1,0.,12.0,0.,12.0,0.,12.0,0.,12.0
1979-08-05 21:54:01.710 ,6,0,0.,12.0,0.,12.0,0.,12.0,0.,12.0
1979-08-05 21:54:13.710 ,6,0,0.,12.0,0.,12.0,0.,12.0,0.,12.0
1979-08-05 21:54:25.710 ,7,0,0.,12.0,0.,12.0,0.,12.0,0.,12.0
1979-08-05 21:54:37.710 ,7,0,0.,12.0,0.,12.0,0.,12.0,0.,12.0
1979-08-05 21:54:49.710 ,7,0,0.,12.0,0.,12.0,0.,12.0,0.,12.0
1979-08-05 21:55:01.710 ,7,0,0.,12.0,0.,12.0,0.,12.0,0.,12.0
1979-08-05 21:55:13.710 ,0,0,0.,12.0,0.,12.0,0.,12.0,0.,12.0
1979-08-05 21:55:25.710 ,0,0,0.,12.0,0.,12.0,0.,12.0,0.,12.0
1979-08-05 21:55:37.710 ,0,0,0.,12.0,0.,12.0,0.,12.0,0.,12.0
1979-08-05 21:55:49.710 ,0,0,0.,12.0,0.,12.0,0.,12.0,0.,12.0
1979-08-05 21:56:01.710 ,3,1,0.,12.0,0.,12.0,0.,12.0,0.,12.0
1979-08-05 21:56:13.710 ,3,1,0.,12.0,0.,12.0,0.,12.0,0.,12.0
1979-08-05 21:56:25.710 ,7,1,0.,12.0,0.,12.0,0.,12.0,0.,12.0
1979-08-05 21:56:37.710 ,7,1,0.,12.0,0.,12.0,0.,12.0,0.,12.0
1979-08-05 21:56:49.710 ,4,1,0.,12.0,0.,12.0,0.,12.0,0.,12.0
1979-08-05 21:57:01.710 ,4,1,0.,12.0,0.,12.0,0.,12.0,0.,12.0
1979-08-05 21:57:13.710 ,0,1,0.,12.0,0.,12.0,0.,12.0,0.,12.0
1979-08-05 21:57:25.710 ,0,1,0.,12.0,0.,12.0,0.,12.0,0.,12.0
1979-08-05 21:57:37.710 ,3,1,0.,12.0,0.,12.0,0.,12.0,0.,12.0
1979-08-05 21:57:49.710 ,3,1,0.,12.0,0.,12.0,0.,12.0,0.,12.0
1979-08-05 21:58:01.710 ,7,1,0.,12.0,0.,12.0,0.,12.0,0.,12.0
1979-08-05 21:58:13.710 ,7,1,0.,12.0,0.,12.0,0.,12.0,0.,12.0
1979-08-05 21:58:25.710 ,4,1,0.,12.0,0.,12.0,0.,12.0,0.,12.0
1979-08-05 21:58:37.710 ,4,1,0.,12.0,0.,12.0,0.,12.0,0.,12.0
1979-08-05 21:58:49.710 ,0,1,0.,12.0,0.,12.0,0.,12.0,0.,12.0
1979-08-05 21:59:01.710 ,0,1,0.,12.0,0.,12.0,0.,12.0,0.,12.0
1979-08-05 21:59:13.710 ,3,1,0.,12.0,0.,12.0,0.,12.0,0.,12.0
1979-08-05 21:59:25.710 ,3,1,0.,12.0,0.,12.0,0.,12.0,0.,12.0
1979-08-05 21:59:37.710 ,7,1,0.,12.0,0.,12.0,0.,12.0,0.,12.0
1979-08-05 21:59:49.710 ,7,1,0.,12.0,0.,12.0,0.,12.0,0.,12.0
1979-08-05 22:00:01.710 ,4,1,0.,12.0,0.,12.0,0.,12.0,0.,12.0
1979-08-05 22:00:13.710 ,4,1,0.,12.0,0.,12.0,0.,12.0,0.,12.0
1979-08-05 22:00:25.710 ,0,1,0.,12.0,0.,12.0,0.,12.0,0.,12.0
1979-08-05 22:00:37.710 ,0,1,0.,12.0,0.,12.0,0.,12.0,0.,12.0
1979-08-05 22:00:49.710 ,3,1,0.,12.0,0.,12.0,0.,12.0,0.,12.0
1979-08-05 22:01:01.710 ,3,1,0.,12.0,0.,12.0,0.,12.0,0.,12.0
1979-08-05 22:01:13.710 ,7,1,0.,12.0,0.,12.0,0.,12.0,0.,12.0
1979-08-05 22:01:25.710 ,7,1,0.,12.0,0.,12.0,0.,12.0,0.,12.0
1979-08-05 22:01:37.710 ,4,1,0.,12.0,0.,12.0,0.,12.0,0.,12.0
1979-08-05 22:01:49.710 ,4,1,0.,12.0,0.,12.0,0.,12.0,0.,12.0
1979-08-05 22:02:01.710 ,0,1,0.,12.0,0.,12.0,0.,12.0,0.,12.0
1979-08-05 22:02:13.710 ,0,1,0.,12.0,0.,12.0,0.,12.0,0.,12.0
1979-08-05 22:02:25.710 ,3,1,0.,12.0,0.,12.0,0.,12.0,0.,12.0
1979-08-05 22:02:37.710 ,3,1,0.,12.0,0.,12.0,0.,12.0,0.,12.0
1979-08-05 22:02:49.710 ,7,1,0.,12.0,0.,12.0,0.,12.0,0.,12.0
1979-08-05 22:03:01.710 ,7,1,0.,12.0,0.,12.0,0.,12.0,0.,12.0
1979-08-05 22:03:13.710 ,4,1,0.,12.0,0.,12.0,0.,12.0,0.,12.0
1979-08-05 22:03:25.710 ,4,1,0.,12.0,0.,12.0,0.,12.0,0.,12.0
1979-08-05 22:03:37.710 ,0,1,0.,12.0,0.,12.0,0.,12.0,0.,12.0
1979-08-05 22:03:49.710 ,0,1,0.,12.0,0.,12.0,0.,12.0,0.,12.0
1979-08-05 22:04:01.710 ,3,1,0.,12.0,0.,12.0,0.,12.0,0.,12.0
1979-08-05 22:04:13.710 ,3,1,0.,12.0,0.,12.0,0.,12.0,0.,12.0
1979-08-05 22:04:25.710 ,7,1,0.,12.0,0.,12.0,0.,12.0,0.,12.0
1979-08-05 22:04:37.710 ,7,1,0.,12.0,0.,12.0,0.,12.0,0.,12.0
1979-08-05 22:04:49.710 ,4,1,0.,12.0,0.,12.0,0.,12.0,0.,12.0
1979-08-05 22:05:01.710 ,4,1,0.,12.0,0.,12.0,0.,12.0,0.,12.0
1979-08-05 22:05:13.710 ,0,1,0.,12.0,0.,12.0,0.,12.0,0.,12.0
1979-08-05 22:05:25.710 ,0,1,0.,12.0,0.,12.0,0.,12.0,0.,12.0
1979-08-05 22:05:37.710 ,0,0,0.,12.0,0.,12.0,0.,12.0,0.,12.0
1979-08-05 22:05:49.710 ,0,0,0.,12.0,0.,12.0,0.,12.0,0.,12.0
1979-08-05 22:06:01.710 ,0,0,0.,12.0,0.,12.0,0.,12.0,0.,12.0
1979-08-05 22:06:13.710 ,0,0,0.,12.0,0.,12.0,0.,12.0,0.,12.0
1979-08-05 22:06:25.710 ,5,1,0.,12.0,0.,12.0,0.,12.0,0.,12.0
1979-08-05 22:06:37.710 ,5,1,0.,12.0,0.,12.0,0.,12.0,0.,12.0
1979-08-05 22:06:49.710 ,5,0,0.,12.0,0.,12.0,0.,12.0,0.,12.0
1979-08-05 22:07:01.710 ,5,0,0.,12.0,0.,12.0,0.,12.0,0.,12.0
1979-08-05 22:07:13.710 ,4,1,0.,12.0,0.,12.0,0.,12.0,0.,12.0
1979-08-05 22:07:25.710 ,4,1,0.,12.0,0.,12.0,0.,12.0,0.,12.0
1979-08-05 22:07:37.710 ,4,0,0.,12.0,0.,12.0,0.,12.0,0.,12.0
1979-08-05 22:07:49.710 ,4,0,0.,12.0,0.,12.0,0.,12.0,0.,12.0
1979-08-05 22:08:01.710 ,3,1,0.,12.0,0.,12.0,0.,12.0,0.,12.0
1979-08-05 22:08:13.710 ,3,1,0.,12.0,0.,12.0,0.,12.0,0.,12.0
1979-08-05 22:08:25.710 ,3,0,0.,12.0,0.,12.0,0.,12.0,0.,12.0
1979-08-05 22:08:37.710 ,3,0,0.,12.0,0.,12.0,0.,12.0,0.,12.0
1979-08-05 22:08:49.710 ,2,1,0.,12.0,0.,12.0,0.,12.0,0.,12.0
1979-08-05 22:09:01.710 ,2,1,0.,12.0,0.,12.0,0.,12.0,0.,12.0
1979-08-05 22:09:13.710 ,2,0,0.,12.0,0.,12.0,0.,12.0,0.,12.0
1979-08-05 22:09:25.710 ,2,0,0.,12.0,0.,12.0,0.,12.0,0.,12.0
1979-08-05 22:09:37.710 ,1,1,1.,12.0,0.,12.0,0.,12.0,0.,12.0
1979-08-05 22:09:49.710 ,1,1,0.,12.0,0.,12.0,0.,12.0,0.,12.0
1979-08-05 22:10:01.710 ,1,0,0.,12.0,0.,12.0,0.,12.0,0.,12.0
1979-08-05 22:10:13.710 ,1,0,0.,12.0,0.,12.0,0.,12.0,0.,12.0
1979-08-05 22:10:25.710 ,0,1,0.,12.0,0.,12.0,0.,12.0,0.,12.0
1979-08-05 22:10:37.710 ,0,1,0.,12.0,0.,12.0,0.,12.0,0.,12.0
1979-08-05 22:10:49.710 ,0,0,0.,12.0,0.,12.0,0.,12.0,0.,12.0
1979-08-05 22:11:01.710 ,0,0,0.,12.0,0.,12.0,0.,12.0,0.,12.0
1979-08-05 22:11:13.710 ,0,1,0.,12.0,0.,12.0,0.,12.0,0.,12.0
1979-08-05 22:11:25.710 ,0,1,0.,12.0,0.,12.0,0.,12.0,0.,12.0
1979-08-05 22:11:37.710 ,0,0,0.,12.0,0.,12.0,0.,12.0,0.,12.0
1979-08-05 22:11:49.710 ,0,0,0.,12.0,0.,12.0,0.,12.0,0.,12.0
1979-08-05 22:12:01.710 ,1,1,0.,12.0,0.,12.0,0.,12.0,0.,12.0
1979-08-05 22:12:13.710 ,1,1,0.,12.0,0.,12.0,0.,12.0,0.,12.0
1979-08-05 22:12:25.710 ,1,0,0.,12.0,0.,12.0,0.,12.0,0.,12.0
1979-08-05 22:12:37.710 ,1,0,0.,12.0,0.,12.0,0.,12.0,0.,12.0
1979-08-05 22:12:49.710 ,2,1,0.,12.0,0.,12.0,0.,12.0,0.,12.0
1979-08-05 22:13:01.710 ,2,1,0.,12.0,0.,12.0,0.,12.0,0.,12.0
1979-08-05 22:13:13.710 ,2,0,0.,12.0,0.,12.0,0.,12.0,0.,12.0
1979-08-05 22:13:25.710 ,2,0,0.,12.0,0.,12.0,0.,12.0,0.,12.0
1979-08-05 22:13:37.710 ,3,1,0.,12.0,0.,12.0,0.,12.0,0.,12.0
1979-08-05 22:13:49.710 ,3,1,0.,12.0,0.,12.0,0.,12.0,0.,12.0
1979-08-05 22:14:01.710 ,3,0,0.,12.0,0.,12.0,0.,12.0,0.,12.0
1979-08-05 22:14:13.710 ,3,0,0.,12.0,0.,12.0,0.,12.0,0.,12.0
1979-08-05 22:14:25.710 ,4,1,0.,12.0,0.,12.0,0.,12.0,0.,12.0
1979-08-05 22:14:37.710 ,4,1,0.,12.0,0.,12.0,0.,12.0,0.,12.0
1979-08-05 22:14:49.710 ,4,0,0.,12.0,0.,12.0,0.,12.0,0.,12.0
1979-08-05 22:15:01.710 ,4,0,0.,12.0,0.,12.0,0.,12.0,0.,12.0
1979-08-05 22:15:13.710 ,5,1,0.,12.0,0.,12.0,0.,12.0,0.,12.0
1979-08-05 22:15:25.710 ,5,1,0.,12.0,0.,12.0,0.,12.0,0.,12.0
1979-08-05 22:15:37.710 ,5,0,0.,12.0,0.,12.0,0.,12.0,0.,12.0
1979-08-05 22:15:49.710 ,5,0,0.,12.0,0.,12.0,0.,12.0,0.,12.0
1979-08-05 22:16:01.710 ,6,1,0.,12.0,0.,12.0,0.,12.0,0.,12.0
1979-08-05 22:16:13.710 ,6,1,0.,12.0,0.,12.0,0.,12.0,0.,12.0
1979-08-05 22:16:25.710 ,6,0,0.,12.0,0.,12.0,0.,12.0,0.,12.0
1979-08-05 22:16:37.710 ,6,0,0.,12.0,0.,12.0,0.,12.0,0.,12.0
1979-08-05 22:16:49.710 ,7,1,0.,12.0,0.,12.0,0.,12.0,0.,12.0
1979-08-05 22:17:01.710 ,7,1,0.,12.0,0.,12.0,0.,12.0,0.,12.0
1979-08-05 22:17:13.710 ,7,0,0.,12.0,0.,12.0,0.,12.0,0.,12.0
1979-08-05 22:17:25.710 ,7,0,0.,12.0,0.,12.0,0.,12.0,0.,12.0
1979-08-05 22:17:37.710 ,7,1,0.,12.0,0.,12.0,0.,12.0,0.,12.0